Home   Weather   Tönisvorst   Past weeks

Flag for Germany Past Weather in Tönisvorst, North Rhine-Westphalia, Germany — Yesterday and Last 2 Weeks

Now
46 °F

Passing clouds.


Feels Like: 44 °F
Forecast: 42 / 51 °F
Wind: 5 mph from West

Location: Monchengladbach Airport

Current Time: Feb 19, 2017 at 5:49:23 pm

Latest Report: Feb 19, 2017 at 5:20 pm


Visibility: 4 mi

Pressure: 30.15 "Hg

Humidity: 87%

Dew Point: 43 °F

Location of TönisvorstLocation

Past Weather in Tönisvorst — Graph

°F

Tönisvorst Temperature Yesterday

Maximum temperature yesterday: 50 °F (at 11:50 am)
Minimum temperature yesterday: 36 °F (at 7:50 pm)
Average temperature yesterday: 45 °F

High & Low Weather Summary for the Past Weeks

 TemperatureHumidityPressure
High57 °F (Feb 15, 2:50 pm)100% (Feb 5, 8:20 am)30.54 "Hg (Feb 5, 8:20 am)
Low30 °F (Feb 14, 7:20 am)47% (Feb 14, 3:20 pm)29.45 "Hg (Feb 4, 4:20 pm)
Average42 °F77%30.19 "Hg
* Reported Feb 4 4:20 pm — Feb 19 4:20 pm, Tönisvorst, Weather by CustomWeather, © 2017

Note: Actual official high and low records may vary slightly from our data, if they occured in-between our weather recording intervals... More about our weather records

Advertising

Tönisvorst Weather History for the Previous 24 Hours

Scroll right to see more
 ConditionsComfort  
Time TempWeatherWind HumidityBarometerVisibility
4:20 pm
Sun, Feb 19
46 °FPassing clouds.6 mph82%30.12 "HgN/A
3:50 pm46 °FPassing clouds.6 mph82%30.12 "HgN/A
3:20 pm46 °FPassing clouds.6 mph87%30.12 "HgN/A
2:50 pm45 °FLight rain. Passing clouds.7 mph93%30.12 "Hg5 mi
2:20 pm46 °FLight rain. Passing clouds.8 mph82%30.15 "HgN/A
1:50 pm46 °FLight rain. Passing clouds.8 mph82%30.15 "HgN/A
1:20 pm46 °FLight rain. Passing clouds.8 mph76%30.15 "Hg5 mi
12:50 pm46 °FPartly cloudy.8 mph76%30.15 "HgN/A
12:20 pm46 °FPassing clouds.9 mph76%30.15 "HgN/A
11:50 am45 °FPassing clouds.7 mph76%30.18 "HgN/A
11:20 am45 °FLight rain. Passing clouds.7 mph76%30.18 "Hg4 mi
10:50 am43 °FPassing clouds.6 mph76%30.18 "HgN/A
10:20 am43 °FPassing clouds.7 mph76%30.18 "HgN/A
9:50 am41 °FPassing clouds.6 mph81%30.18 "HgN/A
9:20 am39 °FClear.5 mph87%30.21 "Hg10 mi
8:50 am36 °FSunny.5 mph87%30.21 "Hg10 mi
8:20 am34 °FSunny.2 mph93%30.21 "Hg10 mi
8:20 pm
Sat, Feb 18
36 °FClear.1 mph93%30.30 "Hg10 mi
7:50 pm36 °FClear.2 mph87%30.30 "Hg10 mi
7:20 pm37 °FClear.1 mph81%30.30 "Hg10 mi
6:50 pm39 °FPassing clouds.1 mph75%30.30 "HgN/A
6:20 pm41 °FPassing clouds.1 mph76%30.30 "HgN/A
5:50 pm45 °FPassing clouds.2 mph66%30.30 "HgN/A
5:20 pm48 °FPassing clouds.1 mph58%30.30 "HgN/A
Weather by CustomWeather, © 2017

See weather overviewHow to use our weather pages